Regional Weather Roundup
Issued by NWS Cleveland, OH

Home | Current Version | Previous Version | Graphics & Text | Print | Product List | Glossary On
Versions: 1 2 3 4 5 6 7 8 9 10 11 12 13 14 15 16 17 18 19 20 21 22 23 24 25 26 27 28 29 30 31 32 33 34 35 36 37 38 39 40 41 42 43 44 45 46 47 48 49 50
000
ASUS41 KCLE 271702
RWRCLE
OHIO REGIONAL WEATHER ROUNDUP
NATIONAL WEATHER SERVICE CLEVELAND, OH
100 PM EDT FRI MAY 27 2016

NOTE: "FAIR" INDICATES FEW OR NO CLOUDS BELOW 12,000 FEET WITH NO
SIGNIFICANT WEATHER AND/OR OBSTRUCTIONS TO VISIBILITY.

OHZ001>008-015>018-024>027-034-035-043-044-271800-
   NORTHWEST OHIO

CITY           SKY/WX    TMP DP  RH WIND       PRES   REMARKS
DEFIANCE       CLOUDY    80  62  54 S9        30.00S
FINDLAY        MOSUNNY   83  60  45 W9        30.01R
TOLEDO EXPRESS CLOUDY    81  63  54 SW7       30.00R
TOLEDO EXEC    CLOUDY    83  61  47 SW9       30.01S
LIMA           MOSUNNY   81  61  50 SW9       30.02S
$$

OHZ009>014-019>023-028>033-038-089-271800-
   NORTHEAST OHIO

CITY           SKY/WX    TMP DP  RH WIND       PRES   REMARKS
CLE-HOPKINS    MOSUNNY   82  62  50 SW12      30.05R
CLE-LAKEFRONT  SUNNY     73  65  75 NW9       30.02R
CUY CO. ARPT   MOSUNNY   68  66  94 NW10      30.04R
LORAIN-ELYRIA  SUNNY     81  60  48 SW14      30.03R
ASHTABULA      PTSUNNY   82  63  52 SW12G17   30.04R
AKRON-CANTON   PTSUNNY   81  61  50 SW12G18   30.05S
WOOSTER        SUNNY     81  62  52 W8G18     30.06S
MANSFIELD      SUNNY     81  62  52 SW12      30.06R
YOUNGSTOWN     PTSUNNY   82  64  54 SW10      30.05S
$$

OHZ042-051>053-060>062-070>072-077>081-271800-
  SOUTHWEST OHIO

CITY           SKY/WX    TMP DP  RH WIND       PRES   REMARKS
CINC-COVINGTON MOSUNNY   82  67  60 VRB7      30.04F
CINC-LUNKEN    SUNNY     82  68  62 S10       30.03F
HAMILTON       SUNNY     85  62  46 VRB7      30.04S
DAYTON         MOSUNNY   82  63  52 S9        30.05R
WRIGHT-PAT AFB MOSUNNY   83  65  53 SW12      30.03S
DAYTON GENERAL SUNNY     81  63  54 SW9       30.04S
WILMINGTON     SUNNY     82  65  56 W12       30.05S
$$

OHZ036-037-039>041-045>050-054>059-063>069-073>076-082>088-271800-
  CENTRAL AND SOUTHEAST OHIO

CITY           SKY/WX    TMP DP  RH WIND       PRES   REMARKS
COLUMBUS       MOSUNNY   81  63  54 S8        30.04S
OSU AIRPORT    NOT AVBL
BOLTON FIELD   SUNNY     82  64  54 SW3       30.05S
RICKENBACK AFB NOT AVBL
NEWARK         MOSUNNY   83  64  52 SW6       30.05S
MARION         SUNNY     81  62  52 S7        30.04S
LANCASTER      SUNNY     82  65  56 SW8       30.06S
ZANESVILLE     MOSUNNY   84  66  54 VRB7      30.06S
NEW PHILLY     MOSUNNY   84  61  45 VRB7      30.06R
$$




USA.gov is the U.S. government's official web portal to all federal, state and local government web resources and services.